ORBVIEW 2 (SEASTAR)

Last updated on Fri Oct 24 2025 00:02:15 GMT+0000 (Coordinated Universal Time)

1 24883U 97037A 25296.44727374 .00000586 00000+0 22034-3 0 9995 2 24883 98.8437 92.2659 0003245 101.4889 258.6660 14.35359636488787
UTC large
Height (km)
Speed (km/s)
/
Latitude / Longitude
Inclination (degrees)
Orbital Period (minutes)
Azimuth
Elevation
Range (km)
Doppler Factor

Next 0 passes for location: London (51.5072 / 0.1276)

Sorry there are no passes over London.